Orangeburg, SC

12:52 AM EST on February 25, 2017 (GMT -0500)
Orangeburg Municipal

Weather History for KOGB - April, 2013

Change the Weather History Date:

Tuesday, April 2, 2013

  Actual Average Record
Temperature  
Mean Temperature 61 °F 61 °F  
Max Temperature 74 °F 73 °F 91 °F (2012)
Min Temperature 47 °F 48 °F 37 °F (2001)
Degree Days  
Heating Degree Days 4 6  
Month to date heating degree days 4 12  
Since 1 July heating degree days 2071 2221  
Cooling Degree Days 0 1  
Month to date cooling degree days 2 2  
Year to date cooling degree days 28 22  
Growing Degree Days 10 (Base 50)    
Moisture  
Dew Point 42 °F    
Average Humidity 57    
Maximum Humidity 86    
Minimum Humidity 27    
Precipitation  
Precipitation 0.00 in 0.12 in 1.21 in (2009)
Month to date precipitation 0.32 0.24  
Year to date precipitation 11.54 11.79  
Sea Level Pressure  
Sea Level Pressure 30.07 in    
Wind  
Wind Speed 4 mph (WSW)    
Max Wind Speed 16 mph    
Max Gust Speed 21 mph    
Visibility 10 miles    
Events      
T = Trace of Precipitation, MM = Missing Value Source: NWS Daily Summary

Daily Weather History Graph

Daily Weather History Graph

Search for Another Location

Airport or City:

Trip Planner

Search our weather history database for the weather conditions in past years. The results will help you decide how hot, cold, wet, or windy it might be!

Date:

Astronomy

Apr. 02, 2013 Rise Set
Actual Time 7:09 AM EDT 7:44 PM EDT
Civil Twilight 6:44 AM EDT 8:09 PM EDT
Nautical Twilight 6:15 AM EDT 8:39 PM EDT
Astronomical Twilight 5:44 AM EDT 9:09 PM EDT
Moon 1:36 AM EDT (4/2) 12:10 PM EDT (4/2)
Length of Visible Light 13h 25m
Length of Day
12h 35m
Waning Gibbous, 56% of the Moon is Illuminated
Apr 2
Waning Gibbous
Apr 3
Last Quarter
Apr 10
New
Apr 18
First Quarter
Apr 25
Full

Hourly Weather History & Observations

Time (EDT) Temp. Dew Point Humidity Pressure Visibility Wind Dir Wind Speed Gust Speed Precip Events Conditions
12:53 AM 57.9 °F 44.1 °F 60% 29.98 in 10.0 mi NW 3.5 mph - N/A   Clear
1:53 AM 55.9 °F 44.1 °F 64% 29.99 in 10.0 mi NW 3.5 mph - N/A   Clear
2:53 AM 55.0 °F 44.1 °F 67% 30.00 in 10.0 mi NNW 3.5 mph - N/A   Clear
3:53 AM 53.1 °F 44.1 °F 71% 30.02 in 10.0 mi NNW 3.5 mph - N/A   Clear
4:53 AM 50.0 °F 44.1 °F 80% 30.03 in 10.0 mi Calm Calm - N/A   Clear
5:53 AM 48.0 °F 44.1 °F 86% 30.05 in 10.0 mi Calm Calm - N/A   Clear
6:53 AM 48.0 °F 44.1 °F 86% 30.07 in 10.0 mi Calm Calm - N/A   Clear
7:53 AM 48.0 °F 45.0 °F 89% 30.11 in 10.0 mi Calm Calm - N/A   Clear
8:53 AM 54.0 °F 42.1 °F 64% 30.13 in 10.0 mi ENE 8.1 mph - N/A   Clear
9:53 AM 55.9 °F 41.0 °F 57% 30.15 in 10.0 mi NE 10.4 mph - N/A   Clear
10:53 AM 57.9 °F 39.9 °F 51% 30.15 in 10.0 mi ENE 8.1 mph - N/A   Clear
11:53 AM 60.1 °F 41.0 °F 49% 30.15 in 10.0 mi SSE 4.6 mph - N/A   Clear
12:53 PM 63.0 °F 39.9 °F 43% 30.13 in 10.0 mi Calm Calm - N/A   Clear
1:53 PM 66.0 °F 39.0 °F 37% 30.09 in 8.0 mi Calm Calm - N/A   Clear
2:53 PM 69.1 °F 41.0 °F 36% 30.07 in 10.0 mi Variable 3.5 mph - N/A   Clear
3:53 PM 70.0 °F 37.9 °F 31% 30.05 in 10.0 mi Calm Calm - N/A   Clear
4:53 PM 72.0 °F 39.0 °F 30% 30.03 in 10.0 mi South 3.5 mph - N/A   Clear
5:53 PM 73.9 °F 37.9 °F 27% 30.03 in 10.0 mi WSW 11.5 mph - N/A   Mostly Cloudy
6:53 PM 72.0 °F 37.9 °F 29% 30.04 in 10.0 mi West 8.1 mph - N/A   Clear
7:53 PM 66.9 °F 39.0 °F 36% 30.05 in 10.0 mi Calm Calm - N/A   Clear
8:53 PM 63.0 °F 46.9 °F 56% 30.07 in 10.0 mi Variable 6.9 mph - N/A   Partly Cloudy
9:53 PM 59.0 °F 46.9 °F 64% 30.09 in 10.0 mi South 8.1 mph - N/A   Clear
10:53 PM 55.9 °F 46.9 °F 72% 30.10 in 10.0 mi South 4.6 mph - N/A   Clear
11:53 PM 55.0 °F 48.0 °F 77% 30.11 in 10.0 mi SSW 6.9 mph - N/A   Clear